Hourly Data Report for October 08, 2013

All times are specified in Local Standard Time (LST). Add 1 hour to adjust for Daylight Saving Time where and when it is observed.

GJOA HAVEN A
NUNAVUT

68°38'08.000" N
95°51'01.000" W
46.90 m
2302337
71597
YHK

Download Data

Hourly Data (October 2013)
Hourly Data Report for October 8, 2013
Temp Definition
°C
Dew Point Temp Definition
°C
Rel Hum Definition
%
Wind Dir Definition
10's deg

Wind Spd Definition
km/h
Visibility Definition
km
Stn Press Definition
kPa
Hmdx Definition


Wind Chill Definition


Weather Definition


TIME
00:00 Legend Double Dagger -3.5 -6.7 79 9 21 16.1 101.29   -10 LegendNANA
01:00 Legend Double Dagger -3.7 -7.0 78 10 11 16.1 101.33   -8 LegendNANA
02:00 Legend Double Dagger -3.8 -6.9 79 10 13 16.1 101.35   -9 LegendNANA
03:00 Legend Double Dagger -4.0 -7.0 80 11 13 16.1 101.38   -9 LegendNANA
04:00 Legend Double Dagger -3.9 -6.8 81 6 22 16.1 101.41   -10 LegendNANA
05:00 Legend Double Dagger -3.9 -6.6 82 8 22 16.1 101.45   -10 LegendNANA
06:00 Legend Double Dagger -4.3 -7.1 81 6 21 16.1 101.47   -11 LegendNANA
07:00 Legend Double Dagger -4.7 -7.8 79 9 18 16.1 101.50   -11 LegendNANA
08:00 Legend Double Dagger -4.5 -7.8 78 8 18 16.1 101.51   -11 LegendNANA
09:00 Legend Double Dagger -4.7 -7.4 82 6 15 16.1 101.50   -10 LegendNANA
10:00 Legend Double Dagger -4.7 -6.4 88 6 17 14.5 101.51   -11 LegendNANA
11:00 Legend Double Dagger -4.7 -6.8 85 6 15 16.1 101.51   -10 LegendNANA
12:00 Legend Double Dagger -4.8 -6.5 88 6 13 16.1 101.54   -10 LegendNANA
13:00 Legend Double Dagger -4.1 -6.9 81 2 21 16.1 101.54   -11 LegendNANA
14:00 Legend Double Dagger -5.1 -6.7 89 4 15 16.1 101.54   -11 LegendNANA
15:00 Legend Double Dagger -5.0 -7.1 85 4 11 16.1 101.55   -10 LegendNANA
16:00 Legend Double Dagger -5.0 -7.2 85 3 21 16.1 101.54   -12 LegendNANA
17:00 Legend Double Dagger -5.2 -7.4 85 1 15 16.1 101.54   -11 LegendNANA
18:00 Legend Double Dagger -5.5 -7.3 87 5 17 16.1 101.51   -12 LegendNANA
19:00 Legend Double Dagger -5.9 -7.6 88 5 15 16.1 101.49   -12 LegendNANA
20:00 Legend Double Dagger -6.5 -8.5 86 5 17 16.1 101.49   -13 LegendNANA
21:00 Legend Double Dagger -6.8 -8.7 86 1 9 16.1 101.48   -11 LegendNANA
22:00 Legend Double Dagger -6.9 -9.0 85 2 9 16.1 101.47   -11 LegendNANA
23:00 Legend Double Dagger -7.1 -9.1 86 35 9 16.1 101.47   -11 LegendNANA

Notes on Data Quality.

Legend

  • E = Estimated
  • M = Missing
  • NA = Not Available
  • ‡ = Partner data that is not subject to review by the National Climate Archives
Date modified: